Tracking 25193 objects as of 18-Jan-2022
HD Live streaming from Space Station
objects crossing your sky now

EKRAN 7

Track EKRAN 7 now!
EKRAN 7 is classified as:


NORAD ID: 12564
Int'l Code: 1981-061A
Perigee: 35,779.4 km
Apogee: 35,825.5 km
Inclination: 10.3 °
Period: 1,436.5 minutes
Semi major axis: 42173 km
RCS: 3.9811 m2 (large)
Launch date: June 26, 1981
Source: Commonwealth of Independent States (former USSR) (CIS)
Launch site: TYURATAM MISSILE AND SPACE COMPLEX (TTMTR)
aabbcc
Your satellite tracking list
Your tracking list is empty




NASA's NSSDC Master Catalog

Two Line Element Set (TLE):
1 12564U 81061A   22017.32163543 -.00000248  00000-0  00000-0 0  9998
2 12564  10.2626 308.9676 0005458  54.9466 324.6983  1.00240786113358
Source of the keplerian elements: AFSPC